GAOFEN-4

Last updated on Mon Sep 21 2026 00:02:46 GMT+0000 (Coordinated Universal Time)

1 41194U 15083A 26263.63322771 -.00000339 00000+0 00000+0 0 9990 2 41194 0.5967 83.2357 0003206 134.3806 115.5898 1.00274298 39486
UTC large
Height (km)
Speed (km/s)
/
Latitude / Longitude
Inclination (degrees)
Orbital Period (minutes)
Azimuth
Elevation
Range (km)
Doppler Factor

Next 0 passes for location: London (51.5072 / 0.1276)

No passes found over London.
GAOFEN-4